Weather History for Port Angeles, WA

Change the Weather History Date:

Tuesday, May 20, 2014

  Actual Average Record
Temperature  
Mean Temperature 54 °F -  
Max Temperature 60 °F 61 °F 79 °F (1961)
Min Temperature 50 °F 46 °F 35 °F (1987)
Degree Days  
Heating Degree Days 10    
Growing Degree Days 4 (Base 50)    
Moisture  
Dew Point 47 °F    
Average Humidity 76    
Maximum Humidity 89    
Minimum Humidity 65    
Precipitation  
Precipitation 0.00 in - - ()
Sea Level Pressure  
Sea Level Pressure 30.14 in    
Wind  
Wind Speed 10 mph (WNW)    
Max Wind Speed 16 mph    
Max Gust Speed 26 mph    
Visibility 10 miles    
Events      
Averages and records for this station are not official NWS values.
T = Trace of Precipitation, MM = Missing Value Source: NWS Daily Summary

Daily Weather History Graph

Daily Weather History Graph

Search for Another Location

Airport:

Trip Planner

Search our weather history database for the weather conditions in past years. The results will help you decide how hot, cold, wet, or windy it might be!

Date:

Astronomy

May. 20, 2014 Rise Set
Actual Time 5:28 AM PDT 8:53 PM PDT
Civil Twilight 4:50 AM PDT 9:31 PM PDT
Nautical Twilight 4:00 AM PDT 10:21 PM PDT
Astronomical Twilight 2:54 AM PDT 11:28 PM PDT
Moon 1:15 AM PDT (5/20) 11:55 AM PDT (5/20)
Length of Visible Light 16h 40m
Length of Day
15h 24m
Waning Gibbous, 59% of the Moon is Illuminated
May 20
Waning Gibbous
May 21
Last Quarter
May 28
New
Jun 5
First Quarter
Jun 12
Full

Hourly Weather History & Observations

Time (PDT) Temp. Dew Point Humidity Pressure Visibility Wind Dir Wind Speed Gust Speed Precip Events Conditions
12:53 AM 51.1 °F 48.0 °F 89% 30.09 in 10.0 mi WNW 9.2 mph - N/A   Clear
1:53 AM 51.8 °F 48.2 °F 88% 30.10 in 10.0 mi WNW 8.1 mph - N/A   Clear
2:53 AM 51.1 °F 46.9 °F 86% 30.11 in 10.0 mi West 9.2 mph - N/A   Clear
3:53 AM 52.0 °F 46.9 °F 83% 30.11 in 10.0 mi WSW 6.9 mph - N/A   Clear
4:53 AM 51.1 °F 46.0 °F 83% 30.11 in 10.0 mi WSW 8.1 mph - N/A   Clear
5:53 AM 50.0 °F 46.0 °F 86% 30.12 in 10.0 mi WSW 8.1 mph - N/A   Clear
6:53 AM 53.1 °F 46.9 °F 80% 30.12 in 10.0 mi West 5.8 mph - N/A   Clear
7:53 AM 55.9 °F 48.9 °F 77% 30.13 in 10.0 mi WNW 9.2 mph - N/A   Clear
8:25 AM 55.9 °F 48.9 °F 77% 30.14 in 10.0 mi WNW 15.0 mph - N/A   Mostly Cloudy
8:53 AM 57.0 °F 48.9 °F 74% 30.14 in 10.0 mi WNW 9.2 mph - N/A   Overcast
9:45 AM 57.9 °F 48.9 °F 72% 30.13 in 10.0 mi NW 12.7 mph - N/A   Scattered Clouds
9:53 AM 57.9 °F 48.9 °F 72% 30.14 in 10.0 mi NW 11.5 mph 20.7 mph N/A   Partly Cloudy
10:53 AM 59.0 °F 48.9 °F 69% 30.15 in 10.0 mi NW 10.4 mph 20.7 mph N/A   Clear
11:53 AM 59.0 °F 48.9 °F 69% 30.15 in 10.0 mi WNW 13.8 mph 20.7 mph N/A   Clear
12:53 PM 57.9 °F 48.0 °F 70% 30.16 in 10.0 mi WNW 15.0 mph 24.2 mph N/A   Clear
1:53 PM 59.0 °F 48.2 °F 67% 30.15 in 10.0 mi NW 12.7 mph 24.2 mph N/A   Clear
2:53 PM 57.9 °F 46.9 °F 67% 30.16 in 10.0 mi WNW 16.1 mph 23.0 mph N/A   Clear
3:53 PM 57.9 °F 46.9 °F 67% 30.14 in 10.0 mi NW 12.7 mph 21.9 mph N/A   Clear
4:53 PM 57.9 °F 46.0 °F 65% 30.14 in 10.0 mi NW 16.1 mph 26.5 mph N/A   Clear
5:53 PM 57.0 °F 46.0 °F 67% 30.15 in 10.0 mi NW 12.7 mph - N/A   Clear
6:53 PM 55.0 °F 45.0 °F 69% 30.15 in 10.0 mi WNW 9.2 mph 24.2 mph N/A   Clear
7:53 PM 53.1 °F 45.0 °F 74% 30.14 in 10.0 mi WNW 12.7 mph - N/A   Clear
8:53 PM 52.0 °F 45.0 °F 77% 30.15 in 10.0 mi West 13.8 mph 23.0 mph N/A   Clear
9:53 PM 51.1 °F 45.0 °F 80% 30.15 in 10.0 mi West 10.4 mph - N/A   Clear
10:53 PM 50.0 °F 44.1 °F 80% 30.16 in 10.0 mi West 11.5 mph - N/A   Clear
11:53 PM 50.0 °F 44.1 °F 80% 30.16 in 10.0 mi West 12.7 mph - N/A   Clear